Regional Weather Roundup
Issued by NWS

Home | Current Version | Previous Version | Text Only | Print | Product List | Glossary On
Versions: 1 2 3 4 5 6 7 8 9 10 11 12 13 14 15 16 17 18 19 20 21 22 23 24 25 26 27 28 29 30 31 32 33 34 35 36 37 38 39 40 41 42 43 44 45 46 47 48 49 50
000
ASUS43 KDTX 022001
RWRMI
MICHIGAN HOURLY REGIONAL WEATHER ROUNDUP
NATIONAL WEATHER SERVICE DETROIT/PONTIAC MI
400 PM EDT THU JUL 02 2015

NOTE: "FAIR" INDICATES FEW OR NO CLOUDS BELOW 12,000 FEET WITH NO
SIGNIFICANT WEATHER AND/OR OBSTRUCTION TO VISIBILITY.

MIZ047>049-052>055-059>063-066>070-074>076-081>083-022100-
SOUTHEAST LOWER MICHIGAN

CITY           SKY/WX    TMP DP  RH WIND       PRES   REMARKS
ADRIAN         PTSUNNY   72  54  53 E8        29.99F
ALMA           MOSUNNY   70  49  47 NE5       30.03S
ANN ARBOR      MOSUNNY   72  53  51 N3        29.99S
BAD AXE        PTSUNNY   68  47  46 NE6       30.04S
CARO           SUNNY     72  53  51 N9        30.02S
DETROIT CITY   MOSUNNY   72  52  49 NE9G17    30.00R
DETROIT        MOSUNNY   75  51  43 N5        29.99R
FLINT          CLOUDY    73  49  42 N7        30.01S
GROSSE ILE     SUNNY     73  55  53 NE8       29.98S
HILLSDALE      PTSUNNY   71  54  56 E7        29.99F
HOWELL         MOSUNNY   70  51  50 NE3       30.00F

CITY           SKY/WX    TMP DP  RH WIND       PRES   REMARKS
JACKSON        MOSUNNY   71  53  52 NE6G17    30.00F
LAMBERTVILLE   MOSUNNY   72  56  57 E7        29.99F
LANSING        PTSUNNY   71  52  50 NE7       30.01F
LAPEER         PTSUNNY   68  47  46 NE5       30.02R
MASON          MOSUNNY   68  53  57 NE7       30.01S
MONROE         PTSUNNY   73  58  59 E8        29.98F
MT. CLEMENS    MOSUNNY   70  51  51 E13       29.99S
PONTIAC        PTSUNNY   71  52  50 NE8       29.99F
PORT HOPE        N/A     61  54  77 N5        30.04S
PORT HURON     SUNNY     68  48  49 N8G17     30.02S
TRI CITIES     SUNNY     72  48  42 NE13      30.04S
MIDLAND        FAIR      70  49  46 E9        30.03S
TROY           PTSUNNY   73  50  44 N7        30.01S
SAGINAW HB     SUNNY     70  48  46 N7        30.02S
$$
MIZ043>046-050>051-056>058-064>065-071>073-077>080-022100-
SOUTHWEST LOWER MICHIGAN

CITY           SKY/WX    TMP DP  RH WIND       PRES   REMARKS
BATTLE CREEK   MOSUNNY   73  54  51 NE10      29.99F
BENTON HARBOR  SUNNY     75  54  47 E9        29.97F
BIG RAPIDS     SUNNY     72  38  28 SE5       30.01F
COLDWATER      PTSUNNY   71  52  50 E7        29.98F
FREMONT        FAIR      73  45  37 E6        30.00F
HOLLAND        PTSUNNY   71  57  61 NW9       30.00F
GRAND RAPIDS   PTSUNNY   73  53  49 E10       30.00F
IONIA          FAIR      71  51  48 NE7       30.01F
KALAMAZOO      MOSUNNY   74  52  46 VRB3      29.99F
LUDINGTON      SUNNY     71  53  52 N10       30.02F
MARSHALL       PTSUNNY   72  54  52 E8        29.98F
MOUNT PLEASANT SUNNY     72  47  39 N7        30.02S
MUSKEGON       MOSUNNY   75  49  39 N9        30.00F
SOUTH HAVEN    PTSUNNY   72  55  55 N8        29.98F
$$
MIZ016>042-022100-
NORTHERN LOWER MICHIGAN

CITY           SKY/WX    TMP DP  RH WIND       PRES   REMARKS
ALPENA         SUNNY     71  39  31 SE7       30.04S
BEAVER ISLAND  SUNNY     70  42  36 W8        30.05F
BELLAIRE       SUNNY     74  45  35 NE8       30.02F
CADILLAC       SUNNY     72  43  34 E10       30.03S
CHARLEVOIX     SUNNY     67  49  53 NW9       30.08S
FRANKFORT      SUNNY     71  42  34 N14       30.03F
GAYLORD        SUNNY     71  45  39 MISG      30.04F
GRAYLING       SUNNY     72  44  36 N3        30.04S
HARBOR SPRINGS SUNNY     63  54  73 SW8       30.04F
HOUGHTON LAKE  SUNNY     72  43  35 E14       30.03F
MANISTEE       SUNNY     66  48  52 NW12G17   30.02F
OSCODA         SUNNY     69  39  32 NE9       30.04S
PELLSTON       MOSUNNY   74  45  35 SE3       30.03F
ROGERS CITY    SUNNY     68  41  37 NE3       30.06S
TRAVERSE CITY  MOSUNNY   72  47  40 N10       30.02F
$$
MIZ007>008-015-022100-
EASTERN UPPER MICHIGAN

CITY           SKY/WX    TMP DP  RH WIND       PRES   REMARKS
KINROSS        SUNNY     70  45  40 N13       30.03S
MACKINAC ISLAN SUNNY     69  48  46 W8        30.03F
NEWBERRY       CLOUDY    71  52  51 SW3       30.02S
S. S. MARIE    SUNNY     70  45  40 W9        30.02F
MUNISING         N/A     65  51  60 N3        30.01F
$$
MIZ004>006-011>014-085-022100-
CENTRAL UPPER MICHIGAN

CITY           SKY/WX    TMP DP  RH WIND       PRES   REMARKS
MANISTIQUE     MOSUNNY   66  48  53 S9        30.04S
ESCANABA       SUNNY     70  48  46 S13       30.03F
MENOMINEE      SUNNY     70  45  40 SE6       30.04F
SAWYER-GWINN   MOSUNNY   73  48  40 W6        30.02F
$$
MIZ001>003-009>011-084-022100-
WESTERN UPPER MICHIGAN

CITY           SKY/WX    TMP DP  RH WIND       PRES   REMARKS
IRON MOUNTAIN  SUNNY     75  49  39 SW8       30.02F
HOUGHTON         N/A    N/A N/A N/A MISG      29.99S
COPPER HARBOR    N/A     68  49  50 E3        29.98F
IRONWOOD       MOSUNNY   75  55  50 SW10      29.98S
$$

ABBREVIATIONS USED IN REMARKS
   TC - TEMPERATURE IN CELSIUS
  WCI - WIND CHILL INDEX
   HX - HEAT INDEX
  VSB - VISIBILITY




USA.gov is the U.S. government's official web portal to all federal, state and local government web resources and services.